• In Czech Republic
  • List of Countries
  • For 7 days
  • Water Temperature
  • Satellite Maps
  • Weather Map
  • Weather Widgets
  • user-avatar
    Login

    Hourly Weather Shymkent

    Today, 18 July, Wednesday

    Time Temperature Precipitation Wind Pressure Humidity
    00:00 +29°C° 0 mm 3 mps 707 mmHg 31%
    01:00 +28°C° 0 mm 3 mps 707 mmHg 32%
    02:00 +28°C° 0 mm 2 mps 707 mmHg 33%
    03:00 +27°C° 0 mm 3 mps 707 mmHg 34%
    04:00 +27°C° 0 mm 3 mps 707 mmHg 34%
    05:00 +27°C° 0 mm 3 mps 707 mmHg 34%
    06:00 +29°C° 0 mm 3 mps 708 mmHg 32%
    07:00 +32°C° 0 mm 4 mps 708 mmHg 29%
    08:00 +34°C° 0 mm 4 mps 708 mmHg 26%
    09:00 +36°C° 0 mm 5 mps 708 mmHg 24%
    10:00 +37°C° 0 mm 5 mps 708 mmHg 21%
    11:00 +40°C° 0 mm 5 mps 709 mmHg 19%
    12:00 +41°C° 0 mm 6 mps 709 mmHg 18%
    13:00 +41°C° 0 mm 6 mps 709 mmHg 18%
    14:00 +42°C° 0 mm 6 mps 708 mmHg 18%
    15:00 +42°C° 0 mm 6 mps 708 mmHg 19%
    16:00 +41°C° 0 mm 7 mps 708 mmHg 20%
    17:00 +41°C° 0 mm 7 mps 708 mmHg 21%
    18:00 +39°C° 0 mm 7 mps 708 mmHg 23%
    19:00 +36°C° 0 mm 6 mps 707 mmHg 26%
    20:00 +35°C° 0 mm 6 mps 707 mmHg 29%
    21:00 +34°C° 0 mm 6 mps 707 mmHg 29%
    22:00 +33°C° 0 mm 6 mps 707 mmHg 29%
    23:00 +32°C° 0 mm 6 mps 707 mmHg 29%

    Tomorrow, 19 July, Thursday

    Time Temperature Precipitation Wind Pressure Humidity
    00:00 +30°C° 0 mm 5 mps 707 mmHg 28%
    01:00 +30°C° 0 mm 4 mps 707 mmHg 28%
    02:00 +29°C° 0 mm 4 mps 707 mmHg 27%
    03:00 +29°C° 0 mm 4 mps 707 mmHg 27%
    04:00 +28°C° 0 mm 3 mps 707 mmHg 27%
    05:00 +28°C° 0 mm 3 mps 707 mmHg 27%
    06:00 +30°C° 0 mm 3 mps 707 mmHg 25%
    07:00 +33°C° 0 mm 3 mps 707 mmHg 23%
    08:00 +35°C° 0 mm 3 mps 708 mmHg 21%
    09:00 +37°C° 0 mm 3 mps 708 mmHg 19%
    10:00 +38°C° 0 mm 3 mps 708 mmHg 17%
    11:00 +40°C° 0 mm 3 mps 708 mmHg 16%
    12:00 +42°C° 0 mm 4 mps 708 mmHg 15%
    13:00 +42°C° 0 mm 4 mps 708 mmHg 15%
    14:00 +43°C° 0 mm 4 mps 707 mmHg 14%
    15:00 +43°C° 0 mm 4 mps 707 mmHg 15%
    16:00 +42°C° 0 mm 5 mps 707 mmHg 15%
    17:00 +42°C° 0 mm 5 mps 707 mmHg 15%
    18:00 +40°C° 0 mm 5 mps 707 mmHg 17%
    19:00 +37°C° 0 mm 5 mps 707 mmHg 20%
    20:00 +35°C° 0 mm 5 mps 706 mmHg 22%
    21:00 +34°C° 0 mm 5 mps 706 mmHg 23%
    22:00 +33°C° 0 mm 4 mps 706 mmHg 24%
    23:00 +32°C° 0 mm 4 mps 706 mmHg 25%

    Day after tomorrow, 20 July, Friday

    Time Temperature Precipitation Wind Pressure Humidity
    00:00 +32°C° 0 mm 4 mps 706 mmHg 26%
    01:00 +30°C° 0 mm 3 mps 706 mmHg 27%
    02:00 +29°C° 0 mm 3 mps 706 mmHg 28%
    03:00 +29°C° 0 mm 3 mps 706 mmHg 28%
    04:00 +28°C° 0 mm 3 mps 706 mmHg 29%
    05:00 +28°C° 0 mm 3 mps 706 mmHg 29%
    06:00 +30°C° 0 mm 3 mps 706 mmHg 27%
    07:00 +31°C° 0 mm 3 mps 707 mmHg 25%
    08:00 +34°C° 0 mm 3 mps 707 mmHg 23%
    09:00 +36°C° 0 mm 3 mps 707 mmHg 22%
    10:00 +37°C° 0 mm 3 mps 708 mmHg 20%
    11:00 +39°C° 0 mm 3 mps 708 mmHg 18%
    12:00 +41°C° 0 mm 4 mps 708 mmHg 17%
    13:00 +42°C° 0 mm 4 mps 707 mmHg 17%
    14:00 +42°C° 0 mm 4 mps 707 mmHg 16%
    15:00 +42°C° 0 mm 5 mps 707 mmHg 16%
    16:00 +42°C° 0 mm 5 mps 707 mmHg 16%
    17:00 +41°C° 0 mm 6 mps 707 mmHg 17%
    18:00 +39°C° 0 mm 6 mps 707 mmHg 19%
    19:00 +36°C° 0 mm 6 mps 707 mmHg 21%
    20:00 +34°C° 0 mm 6 mps 707 mmHg 24%
    21:00 +33°C° 0 mm 6 mps 707 mmHg 24%
    22:00 +32°C° 0 mm 5 mps 707 mmHg 24%
    23:00 +32°C° 0 mm 5 mps 707 mmHg 24%

    21 July, Saturday

    Time Temperature Precipitation Wind Pressure Humidity
    00:00 +30°C° 0 mm 4 mps 707 mmHg 25%
    01:00 +29°C° 0 mm 4 mps 706 mmHg 25%
    02:00 +28°C° 0 mm 3 mps 706 mmHg 25%
    03:00 +28°C° 0 mm 3 mps 706 mmHg 26%
    04:00 +27°C° 0 mm 3 mps 706 mmHg 26%
    05:00 +27°C° 0 mm 3 mps 706 mmHg 26%
    06:00 +29°C° 0 mm 3 mps 707 mmHg 25%
    07:00 +31°C° 0 mm 3 mps 707 mmHg 23%
    08:00 +34°C° 0 mm 3 mps 707 mmHg 21%
    09:00 +36°C° 0 mm 3 mps 708 mmHg 19%
    10:00 +37°C° 0 mm 3 mps 708 mmHg 18%
    11:00 +39°C° 0 mm 3 mps 708 mmHg 16%
    12:00 +40°C° 0 mm 3 mps 708 mmHg 16%
    13:00 +41°C° 0 mm 4 mps 708 mmHg 15%
    14:00 +42°C° 0 mm 4 mps 707 mmHg 15%
    15:00 +42°C° 0 mm 4 mps 707 mmHg 15%
    16:00 +42°C° 0 mm 5 mps 707 mmHg 16%
    17:00 +42°C° 0 mm 5 mps 707 mmHg 16%
    18:00 +40°C° 0 mm 5 mps 707 mmHg 19%
    19:00 +38°C° 0 mm 6 mps 707 mmHg 21%
    20:00 +35°C° 0 mm 6 mps 707 mmHg 24%
    21:00 +34°C° 0 mm 6 mps 707 mmHg 24%
    22:00 +33°C° 0 mm 6 mps 707 mmHg 25%
    23:00 +32°C° 0 mm 6 mps 707 mmHg 25%

    22 July, Sunday

    Time Temperature Precipitation Wind Pressure Humidity
    00:00 +30°C° 0 mm 5 mps 707 mmHg 26%
    01:00 +29°C° 0 mm 4 mps 707 mmHg 27%
    02:00 +29°C° 0 mm 4 mps 706 mmHg 27%
    03:00 +28°C° 0 mm 4 mps 706 mmHg 28%
    04:00 +28°C° 0 mm 4 mps 706 mmHg 28%
    05:00 +27°C° 0 mm 4 mps 706 mmHg 28%
    06:00 +29°C° 0 mm 4 mps 707 mmHg 26%
    07:00 +32°C° 0 mm 4 mps 707 mmHg 24%
    08:00 +34°C° 0 mm 4 mps 707 mmHg 21%
    09:00 +36°C° 0 mm 4 mps 707 mmHg 20%
    10:00 +38°C° 0 mm 4 mps 707 mmHg 18%
    11:00 +40°C° 0 mm 4 mps 708 mmHg 16%
    12:00 +41°C° 0 mm 4 mps 707 mmHg 15%
    13:00 +42°C° 0 mm 4 mps 707 mmHg 15%
    14:00 +42°C° 0 mm 5 mps 707 mmHg 14%
    15:00 +42°C° 0 mm 5 mps 707 mmHg 14%
    16:00 +42°C° 0 mm 5 mps 706 mmHg 15%
    17:00 +41°C° 0 mm 6 mps 706 mmHg 15%
    18:00 +39°C° 0 mm 5 mps 706 mmHg 18%
    19:00 +36°C° 0 mm 5 mps 706 mmHg 20%
    20:00 +34°C° 0 mm 5 mps 706 mmHg 23%
    21:00 +33°C° 0 mm 4 mps 706 mmHg 24%
    22:00 +33°C° 0 mm 4 mps 706 mmHg 25%
    23:00 +31°C° 0 mm 3 mps 706 mmHg 26%

    23 July, Monday

    Time Temperature Precipitation Wind Pressure Humidity
    00:00 +30°C° 0 mm 3 mps 705 mmHg 27%
    01:00 +30°C° 0 mm 3 mps 705 mmHg 27%
    02:00 +29°C° 0 mm 2 mps 705 mmHg 27%
    03:00 +29°C° 0 mm 2 mps 705 mmHg 27%
    04:00 +28°C° 0 mm 2 mps 705 mmHg 27%
    05:00 +28°C° 0 mm 2 mps 705 mmHg 27%
    06:00 +30°C° 0 mm 2 mps 705 mmHg 24%
    07:00 +32°C° 0 mm 2 mps 705 mmHg 22%
    08:00 +36°C° 0 mm 2 mps 706 mmHg 19%
    09:00 +37°C° 0 mm 2 mps 706 mmHg 17%
    10:00 +39°C° 0 mm 2 mps 706 mmHg 16%
    11:00 +40°C° 0 mm 3 mps 706 mmHg 14%
    12:00 +42°C° 0 mm 3 mps 706 mmHg 13%
    13:00 +43°C° 0 mm 3 mps 705 mmHg 13%
    14:00 +44°C° 0 mm 3 mps 705 mmHg 12%
    15:00 +44°C° 0 mm 3 mps 705 mmHg 12%
    16:00 +44°C° 0 mm 3 mps 705 mmHg 12%
    17:00 +44°C° 0 mm 3 mps 705 mmHg 13%
    18:00 +42°C° 0 mm 3 mps 705 mmHg 15%
    19:00 +38°C° 0 mm 3 mps 704 mmHg 17%
    20:00 +36°C° 0 mm 2 mps 704 mmHg 19%
    21:00 +35°C° 0 mm 3 mps 704 mmHg 20%
    22:00 +34°C° 0 mm 3 mps 704 mmHg 21%
    23:00 +34°C° 0 mm 4 mps 704 mmHg 22%
    Show more